Find Starlink 34813

NORAD ID: 66195 Int'l Des: 2025-243 Owner: SPXS Country: US Constellation: starlink operational
LEOCIRCULAR

現在のビュー

3D地球を読み込み中...

Starlink 34813について

説明を読み込み中...

次回通過

Passes for default location (London). Set your location on the main map for personalized predictions.

高度履歴

Loading altitude history...

軌道要素

1 66195U 25243U 26146.53908757 .00014631 00000-0 50508-3 0 9992
2 66195 53.1592 243.5949 0000935 87.1222 272.9885 15.30204424 32572
Epoch: May 26, 2026 • Age: 10 hours

現在のステータス

高度 475.3 km
速度 7.63 km/s
衛星直下点 19.67°N, 35.94°E
打ち上げ日 Oct 26, 2025
運用期間 0.5 years
タイプ internet

技術仕様

分類 Payload
質量 575.00 kg
乾燥質量 530.00 kg
総質量 575.00 kg
長さ 0.30 m
直径 4.10 m
スパン 29.00 m
形状 Box + pan
製造者 SPXS
バスタイプ Starlink V2MO
フェーズステータス In Orbit
所有者/国 SPXS/US

Most Searched